Starlink 1465

operational
NORAD ID: 45731 Int'l Des: 2020-038 Owner: SPXS Country: US Constellation: starlink
LEOCIRCULARSTARLINK_TYPE

关于 Starlink 1465

正在加载描述...

实时位置

正在加载3D地球...

即将过境

高度历史

Altitude vs Time

uPlot chart will show altitude changes over time

两行轨道根数

1 45731U 20038B 25303.14435938 .00001627 00000-0 12805-3 0 9998
2 45731 53.0550 102.6572 0001742 90.3934 269.7255 15.06408797296511
Epoch: Oct 30, 2025 • Age: 22 hours

当前状态

高度 548.3 km
速度 7.59 km/s
星下点 31.31°N, 56.86°E
发射日期 Jun 13, 2020
运行时间 5.3 years
类型 internet

技术详情

分类 Payload
质量 260.00 kg
干质量 248.00 kg
总质量 260.00 kg
长度 0.20 m
直径 2.80 m
跨度 9.00 m
形状 Box + pan
制造商 SPXS
平台类型 Starlink
阶段状态 In Orbit
所有者/国家 SPXS/US

大型星座

Loading constellations...